User: anonymous   Login
Location: Unspecified
(0.0000°N, 0.0000°E)
Time: 19:43:01
(UTC+00:00)
Language:

PAKSAT 1R - Orbit

View from above orbital plane
View from above orbital plane
View from above satellite
View from above satellite

Ground track
Ground track

The orbit data is extracted from the following two-line orbital elements,

1 37779U 11042A   15178.98173920  .00000157  00000-0  00000+0 0  9994
2 37779 000.0209 228.8468 0002956 211.9151 226.4486 01.00275673 14138
Epoch (UTC): 27 June 2015 23:33:42
Eccentricity: 0.0002956
inclination: 0.0209°
perigee height: 35772 km
apogee height: 35797 km
right ascension of ascending node: 228.8468°
argument of perigee: 211.9151°
revolutions per day: 1.00275673
mean anomaly at epoch: 226.4486°
orbit number at epoch: 1413

The dashed part of the orbit path shows where the satellite is in the earth's shadow,  

DLR